Home   Weather   Quispamsis   Past weeks

Flag for Canada Past Weather in Quispamsis, New Brunswick, Canada — Yesterday and Last 2 Weeks

Now
28 °F

Clear.


Feels Like: 22 °F
Forecast: 32 / 52 °F
Wind: 6 mph from Northeast

Location: Saint John

Current Time: Apr 25, 2017 at 4:04:02 am

Latest Report: Apr 25, 2017 at 3:00 am


Visibility: 15 mi

Pressure: 30.35 "Hg

Humidity: 100%

Dew Point: 28 °F

Location of QuispamsisLocation

Past Weather in Quispamsis — Graph

°F

Quispamsis Temperature Yesterday

Maximum temperature yesterday: 55 °F (at 2:00 pm)
Minimum temperature yesterday: 32 °F (at 11:00 pm)
Average temperature yesterday: 45 °F

High & Low Weather Summary for the Past Weeks

 TemperatureHumidityPressure
High63 °F (Apr 11, 2:00 pm)100% (Apr 10, 3:00 am)30.68 "Hg (Apr 10, 3:00 am)
Low19 °F (Apr 19, 7:00 am)12% (Apr 19, 3:00 pm)29.60 "Hg (Apr 17, 12:00 am)
Average41 °F80%30.14 "Hg
* Reported Apr 10 3:00 am — Apr 25 3:00 am, Quispamsis, Weather by CustomWeather, © 2017

Note: Actual official high and low records may vary slightly from our data, if they occured in-between our weather recording intervals... More about our weather records

Advertising

Quispamsis Weather History for the Previous 24 Hours

Scroll right to see more
 ConditionsComfort  
Time TempWeatherWind HumidityBarometerVisibility
3:00 am
Tue, Apr 25
28 °FClear.6 mph100%30.35 "Hg15 mi
2:00 am27 °FClear.3 mph100%30.34 "Hg15 mi
1:00 am28 °FPassing clouds.2 mph93%30.32 "Hg15 mi
12:00 am30 °FPassing clouds.No wind86%30.32 "Hg15 mi
11:00 pm
Mon, Apr 24
32 °FPassing clouds.No wind87%30.30 "Hg15 mi
10:00 pm34 °FPassing clouds.3 mph81%30.29 "Hg15 mi
9:00 pm43 °FPassing clouds.2 mph57%30.27 "Hg15 mi
8:00 pm48 °FPartly sunny.10 mph40%30.24 "Hg15 mi
7:00 pm54 °FPartly sunny.10 mph33%30.21 "Hg15 mi
6:00 pm55 °FScattered clouds.10 mph33%30.19 "Hg15 mi
5:00 pm55 °FScattered clouds.5 mph38%30.19 "Hg15 mi
4:00 pm55 °FScattered clouds.12 mph41%30.19 "Hg15 mi
3:00 pm55 °FPartly sunny.9 mph44%30.17 "Hg15 mi
2:00 pm55 °FBroken clouds.10 mph47%30.18 "Hg15 mi
1:00 pm52 °FBroken clouds.12 mph62%30.17 "Hg15 mi
12:00 pm50 °FPartly sunny.8 mph67%30.17 "Hg15 mi
11:32 am52 °FPartly sunny.8 mph67%30.16 "Hg15 mi
11:00 am50 °FPartly sunny.8 mph67%30.15 "Hg15 mi
10:05 am46 °FBroken clouds.5 mph82%30.15 "Hg15 mi
10:00 am46 °FScattered clouds.6 mph82%30.15 "Hg15 mi
9:31 am43 °FScattered clouds.5 mph93%30.14 "Hg15 mi
9:10 am43 °FPartly sunny.6 mph100%30.14 "Hg15 mi
9:00 am41 °FPartly sunny.6 mph100%30.13 "Hg10 mi
8:46 am41 °FPartly sunny.7 mph100%30.13 "Hg10 mi
8:37 am41 °FLow clouds.8 mph100%30.13 "Hg10 mi
8:00 am41 °FFog.8 mph100%30.11 "Hg5 mi
7:00 am39 °FLow clouds.9 mph100%30.08 "Hg8 mi
6:00 am39 °FLow clouds.8 mph100%30.06 "Hg8 mi
5:00 am39 °FPassing clouds.8 mph100%30.05 "Hg15 mi
4:00 am37 °FPassing clouds.8 mph100%30.05 "Hg15 mi
Weather by CustomWeather, © 2017

See weather overviewHow to use our weather pages